[[{"header":{"parameterUnit":"m.s-1","parameterCategory":1,"la1":30.2991,"la2":30.254,"lo1":-89.0895,"lo2":-89.0444,"dy":0.0017,"dx":0.0017,"nx":28,"ny":28,"refTime":"2025-11-28T09:00:00:Z","depth":0,"parameterNumber":2,"parameterNumberName":"U-component_of_WINDS"},"data":[0,0,0,0,0,0,0,0,0,0,0,0,0,0,0,0,0,0,0,0,0,0,0,0,0,0,0,0,0,0,0,0,0,0,0,0,0,0,0,0,0,0,0,0,0,0,0,0,0,0,0,0,0,0,0,0,0,0,-1.4883,-1.488,0,-1.4589,-1.4586,-1.4582,-1.4479,-1.448,-1.4482,-1.4483,-1.4182,-1.4174,-1.4165,0,0,0,0,0,0,0,0,0,0,0,0,0,-1.5352,-1.5344,-1.4884,-1.488,-1.4876,-1.4589,-1.4585,-1.4581,-1.4479,-1.448,-1.4482,-1.4483,-1.4185,-1.4175,-1.4164,0,0,0,0,0,0,0,0,0,0,0,0,0,-1.5112,-1.5342,-1.4884,-1.4791,-1.4779,-1.459,-1.4585,-1.458,-1.4479,-1.4481,-1.4482,-1.4484,-1.4189,-1.4176,-1.4162,-1.4045,0,0,-1.4121,-1.4115,0,0,0,0,0,0,0,0,-1.5126,-1.5095,-1.4808,-1.4797,-1.4784,-1.4572,-1.464,-1.4401,-1.4478,-1.4593,-1.4483,-1.4485,-1.4311,-1.4287,-1.4229,-1.4031,-1.4018,-1.412,-1.4112,-1.4106,-1.4102,0,0,0,0,0,0,0,-1.5143,-1.5107,-1.4767,-1.4804,-1.4789,-1.4761,-1.4729,-1.4595,-1.4446,-1.4583,-1.4575,-1.4541,-1.4305,-1.4242,-1.4221,-1.4014,-1.412,-1.4108,-1.41,-1.4094,-1.3696,-1.3694,0,0,0,0,0,0,-1.5176,-1.5122,-1.4776,-1.4758,-1.4962,-1.4752,-1.4716,-1.4639,-1.4447,-1.442,-1.454,-1.4538,-1.4264,-1.4237,-1.421,-1.4053,-1.4106,-1.4093,-1.4085,-1.3699,-1.3696,-1.3693,0,0,0,0,0,0,-1.5186,-1.5146,-1.4788,-1.4937,-1.489,-1.4742,-1.4656,-1.4632,-1.4569,-1.4415,-1.4388,-1.4504,-1.4264,-1.4229,-1.4085,-1.4042,-1.4087,-1.4075,-1.3702,-1.3698,-1.3695,-1.3745,0,0,0,0,0,0,-1.52,-1.515,-1.5106,-1.4937,-1.4882,-1.467,-1.4654,-1.4625,-1.4546,-1.454,-1.4373,-1.4348,-1.4263,-1.4105,-1.4071,-1.4024,-1.4064,-1.3705,-1.37,-1.3696,-1.3746,-1.3743,-1.3741,0,0,0,0,0,-1.5217,-1.5134,-1.5104,-1.5063,-1.4824,-1.4668,-1.4636,-1.454,-1.4543,-1.4495,-1.4395,-1.4353,-1.4053,-1.4092,-1.4052,-1.4,-1.3707,-1.3701,-1.3696,-1.3747,-1.3744,-1.3741,0,0,0,0,0,0,-1.5303,-1.511,-1.5075,-1.4936,-1.4818,-1.4651,-1.4588,-1.4541,-1.4421,-1.442,-1.4306,-1.4269,-1.4133,-1.4053,-1.4099,-1.3872,-1.3877,-1.3864,-1.393,-1.3925,-1.3922,-1.3943,-1.4053,0,0,0,0,0,-1.5306,-1.5196,-1.5033,-1.4925,-1.4868,-1.4738,-1.4667,-1.4602,-1.4476,-1.4427,-1.4316,-1.4196,-1.4073,-1.3995,-1.3875,-1.3735,-1.3693,-1.3679,-1.3676,-1.3675,-1.3663,-1.3575,-1.3565,-1.3675,-1.3675,-1.3675,0,0,-1.531,-1.5191,-1.5129,-1.4939,-1.4841,-1.4726,-1.4697,-1.458,-1.4493,-1.4409,-1.4264,-1.4179,-1.4036,-1.3891,-1.3822,-1.382,-1.3623,-1.3668,-1.3668,-1.3656,-1.3568,-1.3558,-1.3549,-1.3671,-1.3672,-1.3673,0,0,-1.5259,-1.516,-1.5056,-1.4956,-1.4807,-1.472,-1.4695,-1.4532,-1.4471,-1.4324,-1.4256,-1.415,-1.3944,-1.3842,-1.3764,-1.3666,-1.362,-1.3631,-1.3615,-1.3531,-1.3522,-1.3514,-1.3472,-1.346,-1.3621,-1.3621,-1.3621,0,-1.5283,-1.511,-1.5009,-1.4891,-1.4807,-1.4723,-1.4614,-1.4523,-1.4342,-1.4284,-1.4285,-1.4018,-1.3917,-1.3743,-1.3718,-1.366,-1.3624,-1.3648,-1.3532,-1.3522,-1.3513,-1.3472,-1.3457,-1.3622,-1.3622,-1.3622,-1.3622,0,-1.5143,-1.5023,-1.4957,-1.4781,-1.4689,-1.4578,-1.4456,-1.4375,-1.4317,-1.4229,-1.4076,-1.3951,-1.3799,-1.3754,-1.3699,-1.357,-1.3572,-1.3554,-1.3556,-1.3506,-1.3465,-1.3449,-1.3625,-1.3624,-1.3624,-1.3623,0,0,-1.5141,-1.4906,-1.4883,-1.4798,-1.4624,-1.4528,-1.4409,-1.4259,-1.4189,-1.4066,-1.396,-1.3784,-1.3762,-1.3674,-1.3605,-1.3532,-1.3453,-1.352,-1.3515,-1.3507,-1.3295,-1.3307,-1.3291,-1.3422,-1.3419,-1.3416,-1.3305,0,-1.5063,-1.4848,-1.475,-1.4577,-1.4461,-1.4376,-1.4272,-1.4152,-1.4065,-1.3952,-1.3857,-1.373,-1.3716,-1.366,-1.3584,-1.3479,-1.3408,-1.3486,-1.3319,-1.3314,-1.3352,-1.3271,-1.3284,-1.3185,-1.3289,-1.3286,-1.3285,0,-1.4945,-1.4817,-1.4633,-1.4464,-1.4412,-1.432,-1.417,-1.4065,-1.3924,-1.3866,-1.3762,-1.3695,-1.3563,-1.3575,-1.3388,-1.3443,-1.3369,-1.3306,-1.33,-1.3277,-1.3294,-1.3241,-1.3152,-1.3136,-1.326,-1.3262,-1.3264,0,-1.4955,-1.4737,-1.4596,-1.4527,-1.4329,-1.4265,-1.4179,-1.4041,-1.3954,-1.3823,-1.3764,-1.3621,-1.3542,-1.3431,-1.3324,-1.3344,-1.3145,-1.3151,-1.3089,-1.3091,-1.3049,-1.3052,-1.2942,-1.3009,-1.301,-1.301,-1.301,0,-1.4876,-1.4765,-1.4596,-1.451,-1.438,-1.4266,-1.4141,-1.4049,-1.3924,-1.3815,-1.3735,-1.3633,-1.3501,-1.3382,-1.3299,-1.3152,-1.3119,-1.3065,-1.3043,-1.3069,-1.3075,-1.3016,-1.3018,-1.3006,-1.3007,-1.3007,-1.3008,0,-1.4866,-1.4749,-1.4588,-1.4411,-1.4364,-1.4276,-1.4123,-1.4033,-1.394,-1.3802,-1.3763,-1.3617,-1.3471,-1.3354,-1.3167,-1.311,-1.2954,-1.2933,-1.3001,-1.2988,-1.2931,-1.2936,-1.2775,-1.2745,-1.2838,-1.2838,-1.2837,0,-1.4822,-1.4733,-1.4545,-1.4465,-1.4379,-1.4253,-1.4162,-1.4045,-1.3953,-1.3781,-1.3711,-1.3559,-1.3431,-1.3202,-1.3078,-1.2932,-1.2902,-1.2856,-1.288,-1.2906,-1.2894,-1.2898,-1.2885,-1.2853,-1.2852,-1.2852,-1.2852,0,-1.4754,-1.4698,-1.4571,-1.4421,-1.4314,-1.4191,-1.4066,-1.4004,-1.3863,-1.3764,-1.3612,-1.3513,-1.3316,-1.3164,-1.3003,-1.2912,-1.2856,-1.2845,-1.2821,-1.2845,-1.2886,-1.2856,-1.2988,-1.2849,-1.2849,-1.2849,-1.285,-1.285,-1.4721,-1.4635,-1.4487,-1.4345,-1.4237,-1.412,-1.4023,-1.3916,-1.3788,-1.3617,-1.3555,-1.3398,-1.3252,-1.3029,-1.2936,-1.2809,-1.2804,-1.2773,-1.2764,-1.2756,-1.2756,-1.2909,-1.2781,-1.278,-1.278,-1.278,-1.278,0,-1.4644,-1.4543,-1.4414,-1.4238,-1.4124,-1.408,-1.3937,-1.3844,-1.3706,-1.3575,-1.3448,-1.327,-1.312,-1.2981,-1.2824,-1.2748,-1.2718,-1.271,-1.2713,-1.2691,-1.2773,-1.2806,-1.2737,-1.2737,-1.2737,-1.2737,-1.2737,-1.2737,-1.4591,-1.444,-1.4366,-1.4158,-1.4057,-1.3901,-1.3821,-1.371,-1.3603,-1.3407,-1.3281,-1.3191,-1.3054,-1.2884,-1.2742,-1.2705,-1.2648,-1.2646,-1.2602,-1.2681,-1.2686,-1.2692,-1.2722,-1.2636,-1.2636,-1.2529,-1.2528,-1.2528]},{"header":{"parameterUnit":"m.s-1","parameterCategory":1,"la1":30.2991,"la2":30.254,"lo1":-89.0895,"lo2":-89.0444,"dy":0.0017,"dx":0.0017,"nx":28,"ny":28,"refTime":"2025-11-28T09:00:00:Z","depth":0,"parameterNumber":3,"parameterNumberName":"V-component_of_WINDS"},"data":[0,0,0,0,0,0,0,0,0,0,0,0,0,0,0,0,0,0,0,0,0,0,0,0,0,0,0,0,0,0,0,0,0,0,0,0,0,0,0,0,0,0,0,0,0,0,0,0,0,0,0,0,0,0,0,0,0,0,-1.7154,-1.7152,0,-1.6972,-1.6969,-1.6967,-1.6895,-1.6896,-1.6896,-1.6897,-1.668,-1.6673,-1.6667,0,0,0,0,0,0,0,0,0,0,0,0,0,-1.7409,-1.7405,-1.7154,-1.7152,-1.715,-1.6972,-1.6969,-1.6967,-1.6895,-1.6896,-1.6896,-1.6897,-1.6682,-1.6674,-1.6667,0,0,0,0,0,0,0,0,0,0,0,0,0,-1.7269,-1.7403,-1.7154,-1.7093,-1.7086,-1.6972,-1.6969,-1.6966,-1.6895,-1.6896,-1.6897,-1.6897,-1.6684,-1.6675,-1.6666,-1.659,0,0,-1.6637,-1.6633,0,0,0,0,0,0,0,0,-1.7277,-1.7259,-1.7104,-1.7097,-1.7089,-1.6958,-1.6979,-1.6839,-1.6895,-1.6966,-1.6897,-1.6898,-1.6769,-1.6753,-1.6716,-1.658,-1.6571,-1.6636,-1.663,-1.6626,-1.6623,0,0,0,0,0,0,0,-1.7287,-1.7267,-1.7081,-1.7102,-1.7092,-1.7064,-1.7045,-1.6952,-1.6864,-1.696,-1.6955,-1.6936,-1.6765,-1.6725,-1.671,-1.6568,-1.6636,-1.6628,-1.6622,-1.6618,-1.635,-1.6349,0,0,0,0,0,0,-1.7311,-1.7275,-1.7087,-1.7075,-1.7188,-1.7059,-1.7038,-1.6998,-1.6866,-1.6847,-1.6935,-1.6933,-1.6741,-1.6721,-1.6702,-1.66,-1.6626,-1.6617,-1.6612,-1.6351,-1.635,-1.6348,0,0,0,0,0,0,-1.7317,-1.7295,-1.7094,-1.7174,-1.7147,-1.7054,-1.701,-1.6994,-1.6955,-1.6847,-1.6828,-1.6913,-1.6741,-1.6716,-1.6619,-1.6592,-1.6613,-1.6604,-1.6353,-1.6351,-1.6349,-1.64,0,0,0,0,0,0,-1.7324,-1.7297,-1.7276,-1.7175,-1.7143,-1.7024,-1.7009,-1.699,-1.6943,-1.6938,-1.6821,-1.6802,-1.674,-1.6633,-1.661,-1.6579,-1.6597,-1.6355,-1.6352,-1.635,-1.64,-1.64,-1.6399,0,0,0,0,0,-1.7334,-1.7293,-1.7276,-1.7253,-1.7116,-1.7024,-1.7004,-1.6942,-1.6941,-1.6913,-1.6842,-1.6806,-1.66,-1.6624,-1.6597,-1.6563,-1.6356,-1.6353,-1.635,-1.64,-1.64,-1.6399,0,0,0,0,0,0,-1.7385,-1.7278,-1.7258,-1.7185,-1.7115,-1.7012,-1.6976,-1.6944,-1.6865,-1.6863,-1.6779,-1.6753,-1.6661,-1.6601,-1.6632,-1.6478,-1.6474,-1.6465,-1.6522,-1.652,-1.652,-1.6534,-1.6589,0,0,0,0,0,-1.7389,-1.7333,-1.7239,-1.7183,-1.715,-1.7069,-1.7026,-1.6985,-1.6904,-1.6871,-1.6794,-1.6708,-1.6622,-1.6568,-1.6484,-1.6391,-1.6358,-1.6353,-1.6353,-1.6353,-1.6345,-1.6281,-1.6276,-1.6337,-1.6337,-1.6338,0,0,-1.7394,-1.7329,-1.7298,-1.7192,-1.7133,-1.7066,-1.7044,-1.6976,-1.6922,-1.6857,-1.6764,-1.6702,-1.6599,-1.6503,-1.6456,-1.645,-1.632,-1.6349,-1.635,-1.6341,-1.6278,-1.6272,-1.6267,-1.6335,-1.6336,-1.6336,0,0,-1.7371,-1.7319,-1.7266,-1.7207,-1.7121,-1.7066,-1.7053,-1.6954,-1.6913,-1.682,-1.6768,-1.6696,-1.6554,-1.6481,-1.6426,-1.6368,-1.6327,-1.6342,-1.6339,-1.6278,-1.6273,-1.6268,-1.6241,-1.6233,-1.6335,-1.6335,-1.6335,0,-1.7386,-1.7295,-1.7239,-1.7174,-1.7124,-1.7071,-1.7009,-1.6951,-1.6837,-1.6799,-1.6797,-1.6614,-1.6541,-1.6423,-1.6409,-1.6367,-1.634,-1.6355,-1.6281,-1.6275,-1.6269,-1.6242,-1.6233,-1.6337,-1.6337,-1.6336,-1.6336,0,-1.7314,-1.725,-1.7215,-1.7117,-1.7062,-1.6999,-1.6923,-1.6872,-1.6833,-1.6775,-1.6673,-1.6584,-1.6479,-1.6447,-1.6406,-1.6319,-1.6318,-1.63,-1.6293,-1.6267,-1.6239,-1.6229,-1.634,-1.6339,-1.6339,-1.6338,0,0,-1.732,-1.7191,-1.7178,-1.713,-1.7028,-1.6971,-1.6899,-1.6806,-1.6761,-1.6681,-1.6612,-1.649,-1.6471,-1.6408,-1.6355,-1.6303,-1.6254,-1.6288,-1.6284,-1.628,-1.6143,-1.6156,-1.6146,-1.6227,-1.6225,-1.6224,-1.6149,0,-1.7279,-1.7163,-1.7108,-1.7009,-1.6944,-1.6889,-1.6825,-1.6748,-1.669,-1.6616,-1.6546,-1.6461,-1.6446,-1.6406,-1.6352,-1.6273,-1.6224,-1.6277,-1.615,-1.6147,-1.6177,-1.6133,-1.6148,-1.6083,-1.6139,-1.6137,-1.6136,0,-1.7219,-1.7149,-1.7048,-1.6949,-1.6918,-1.6864,-1.6769,-1.6704,-1.661,-1.657,-1.6499,-1.6448,-1.6357,-1.6358,-1.6224,-1.6261,-1.6204,-1.6156,-1.6151,-1.6134,-1.6139,-1.6109,-1.6061,-1.605,-1.612,-1.6121,-1.6122,0,-1.7228,-1.7107,-1.7029,-1.699,-1.6874,-1.6835,-1.6782,-1.6691,-1.6636,-1.6548,-1.6509,-1.6408,-1.6351,-1.6268,-1.6186,-1.6196,-1.6056,-1.6053,-1.601,-1.6012,-1.5982,-1.5985,-1.592,-1.5952,-1.5953,-1.5953,-1.5953,0,-1.7188,-1.7126,-1.7032,-1.6984,-1.6909,-1.684,-1.6764,-1.6705,-1.6623,-1.6552,-1.6494,-1.6426,-1.6325,-1.624,-1.6173,-1.6067,-1.6042,-1.5999,-1.5981,-1.6003,-1.6008,-1.5962,-1.5963,-1.595,-1.5951,-1.5951,-1.5952,0,-1.7186,-1.7122,-1.7033,-1.6931,-1.6903,-1.6851,-1.6757,-1.6701,-1.664,-1.6551,-1.6525,-1.6423,-1.632,-1.6231,-1.6092,-1.6046,-1.5934,-1.5915,-1.597,-1.596,-1.5921,-1.5924,-1.5822,-1.5801,-1.5852,-1.5852,-1.5852,0,-1.7165,-1.7117,-1.7011,-1.6966,-1.6917,-1.6842,-1.6787,-1.6712,-1.6655,-1.6541,-1.6496,-1.6391,-1.6303,-1.6137,-1.6042,-1.5932,-1.5906,-1.5878,-1.5889,-1.5909,-1.5898,-1.5901,-1.5891,-1.5877,-1.5877,-1.5877,-1.5877,0,-1.7131,-1.71,-1.703,-1.6945,-1.6883,-1.681,-1.6734,-1.6696,-1.6604,-1.6539,-1.644,-1.6372,-1.6232,-1.6123,-1.6002,-1.5932,-1.5884,-1.5874,-1.5857,-1.5877,-1.5909,-1.5885,-1.5964,-1.5876,-1.5876,-1.5876,-1.5876,-1.5876,-1.7115,-1.7068,-1.6986,-1.6905,-1.6842,-1.6771,-1.6713,-1.6646,-1.6564,-1.6453,-1.6409,-1.6304,-1.6198,-1.6033,-1.5962,-1.5869,-1.5861,-1.5838,-1.5832,-1.5826,-1.5827,-1.5928,-1.5846,-1.5846,-1.5846,-1.5846,-1.5845,0,-1.7074,-1.7019,-1.6946,-1.6846,-1.6779,-1.6752,-1.6663,-1.6606,-1.6518,-1.643,-1.6346,-1.6224,-1.6116,-1.6012,-1.5896,-1.5839,-1.5813,-1.581,-1.5811,-1.5794,-1.5844,-1.5868,-1.5833,-1.5833,-1.5833,-1.5833,-1.5833,-1.5833,-1.7046,-1.6964,-1.6922,-1.6802,-1.6742,-1.6648,-1.6599,-1.6528,-1.6458,-1.6328,-1.6243,-1.618,-1.608,-1.5955,-1.5849,-1.582,-1.5776,-1.5778,-1.5741,-1.5789,-1.5792,-1.5794,-1.5816,-1.5771,-1.5771,-1.5698,-1.5698,-1.5697]}]]